Weather History for Wilmington, OH

Change the Weather History Date:

Monday, January 27, 2014

  Actual Average (KDAY) Record (KDAY)
Temperature  
Mean Temperature 20 °F 28 °F  
Max Temperature 41 °F 35 °F 66 °F (1916)
Min Temperature -2 °F 20 °F -9 °F (1936)
Degree Days  
Heating Degree Days 44 37  
Month to date heating degree days 1016  
Since 1 July heating degree days 3175  
Cooling Degree Days 0 0  
Month to date cooling degree days 0  
Year to date cooling degree days 0  
Moisture  
Dew Point 0 °F    
Average Humidity 60    
Maximum Humidity 72    
Minimum Humidity 41    
Precipitation  
Precipitation 0.00 in 0.08 in 0.95 in (1994)
Month to date precipitation 2.39  
Year to date precipitation 2.39  
Snow  
Snow 0.00 in 0.30 in 3.40 in (1979)
Month to date snowfall 6.9  
Since 1 July snowfall 12.4  
Snow Depth -    
Sea Level Pressure  
Sea Level Pressure 30.17 in    
Wind  
Wind Speed 19 mph (WNW)    
Max Wind Speed 38 mph    
Max Gust Speed 46 mph    
Visibility 10 miles    
Events      
T = Trace of Precipitation, MM = Missing Value Source: NWS Daily Summary

Daily Weather History Graph

Daily Weather History Graph

Search for Another Location

Airport:

Trip Planner

Search our weather history database for the weather conditions in past years. The results will help you decide how hot, cold, wet, or windy it might be!

Date:

Astronomy

Jan. 27, 2014 Rise Set
Actual Time 7:46 AM EST 5:49 PM EST
Civil Twilight 7:18 AM EST 6:18 PM EST
Nautical Twilight 6:45 AM EST 6:50 PM EST
Astronomical Twilight 6:13 AM EST 7:22 PM EST
Moon 4:26 AM EST 2:35 PM EST
Length of Visible Light 11h 00m
Length of Day
10h 03m
Waning Crescent, 15% of the Moon is Illuminated
Jan 27
Waning Crescent
Jan 30
New
Feb 6
First Quarter
Feb 14
Full
Feb 22
Last Quarter

Hourly Weather History & Observations

Time (EST) Temp. Windchill Dew Point Humidity Pressure Visibility Wind Dir Wind Speed Gust Speed Precip Events Conditions
12:54 AM 39.0 °F 30.3 °F 30.0 °F 70% 29.61 in 10.0 mi SW 16.1 mph - N/A   Overcast
1:54 AM 41.0 °F 30.9 °F 30.0 °F 65% 29.63 in 10.0 mi West 24.2 mph 34.5 mph N/A   Overcast
2:16 AM 30.9 °F 15.5 °F 23.0 °F 72% 29.65 in 10.0 mi WNW 33.4 mph 42.6 mph N/A   Overcast
2:54 AM 21.9 °F 2.2 °F 12.9 °F 68% 29.79 in 10.0 mi WNW 38.0 mph 46.0 mph N/A   Overcast
3:54 AM 19.0 °F 2.0 °F 7.0 °F 59% 29.88 in 10.0 mi West 23.0 mph 33.4 mph 0.00 in   Overcast
4:54 AM 17.1 °F -1.7 °F -2.9 °F 41% 29.93 in 10.0 mi West 26.5 mph 36.8 mph N/A   Overcast
5:54 AM 12.0 °F -8.1 °F -2.9 °F 51% 30.02 in 10.0 mi WNW 25.3 mph 33.4 mph N/A   Overcast
6:54 AM 9.0 °F -10.0 °F -4.0 °F 56% 30.09 in 10.0 mi WNW 19.6 mph 32.2 mph N/A   Scattered Clouds
7:54 AM 7.0 °F -12.1 °F -2.9 °F 64% 30.16 in 10.0 mi WNW 18.4 mph 25.3 mph N/A   Clear
8:54 AM 6.1 °F -9.5 °F -4.0 °F 63% 30.21 in 10.0 mi WNW 11.5 mph - N/A   Clear
9:54 AM 6.1 °F -9.5 °F -5.1 °F 60% 30.24 in 10.0 mi West 11.5 mph 20.7 mph N/A   Clear
10:54 AM 6.1 °F -10.2 °F -5.1 °F 60% 30.27 in 10.0 mi WNW 12.7 mph - N/A   Clear
11:54 AM 8.1 °F -9.0 °F -2.9 °F 61% 30.27 in 10.0 mi WNW 15.0 mph - N/A   Clear
12:54 PM 9.0 °F -6.6 °F -2.9 °F 59% 30.26 in 10.0 mi West 12.7 mph 19.6 mph N/A   Clear
1:54 PM 8.1 °F -7.7 °F -5.1 °F 55% 30.25 in 10.0 mi WNW 12.7 mph - N/A   Clear
2:54 PM 9.0 °F -5.9 °F -5.1 °F 53% 30.28 in 10.0 mi West 11.5 mph - N/A   Clear
3:54 PM 9.0 °F -7.9 °F -7.1 °F 48% 30.30 in 10.0 mi West 15.0 mph 21.9 mph N/A   Clear
4:54 PM 9.0 °F -7.3 °F -6.0 °F 51% 30.32 in 10.0 mi WNW 13.8 mph - N/A   Clear
5:54 PM 7.0 °F -8.3 °F -6.0 °F 55% 30.35 in 10.0 mi West 11.5 mph - N/A   Clear
6:54 PM 6.1 °F -9.5 °F -4.0 °F 63% 30.39 in 10.0 mi WNW 11.5 mph - N/A   Clear
7:54 PM 3.9 °F -13.0 °F -6.0 °F 64% 30.42 in 10.0 mi WNW 12.7 mph - N/A   Clear
8:54 PM 3.0 °F -12.5 °F -6.0 °F 66% 30.45 in 10.0 mi WNW 10.4 mph 20.7 mph N/A   Clear
9:54 PM 1.0 °F -18.0 °F -7.1 °F 69% 30.48 in 10.0 mi NW 15.0 mph - N/A   Clear
10:54 PM -0.0 °F -18.0 °F -11.9 °F 57% 30.51 in 10.0 mi NW 12.7 mph - N/A   Clear
11:54 PM -2.9 °F -19.8 °F -11.9 °F 65% 30.53 in 10.0 mi NW 10.4 mph - N/A   Clear